Weather in Bologovo

Russia / Tver Oblast     56°54′06″N   31°42′26″E
temp.,
°C
wind,
m/s
gust,
m/s
humid.,
%
clouds,
%
prec.,
mm/h
press.,
hPa
HPBL,
m
15 may, sat
sat1500:00+11ese31192100 0.0 1009261
03:00+10ese31096100 0.0 1007232
06:00+11ese399560 0.1 1006261
09:00+15sse348372 1.1 1005573
12:00+14sse3589100 0.4 1006500
15:00+19ssw356429 0.8 10041182
18:00+17ssw247974 1.8 1004709
21:00+12wsw229584 3.3 100416
16 may, sun
sun1600:00+11sw259715 0.6 1005112
03:00+10ssw389814 0.9 1006194
06:00+10sw269928 0.0 1007172
09:00+15wsw358639 0.0 1009552
12:00+18wsw454621 0.0 10101220
15:00+20wsw35465 0.0 10101675
18:00+20sw24548 0.0 10101721
21:00+14s227428 0.0 101112
17 may, mon
mon1700:00+12s22876 0.0 101222
03:00+11sse269682 0.0 101299
06:00+12se3991100 0.0 1012235
09:00+17se4971100 0.0 1012602
12:00+21se5754100 0.0 10101659
15:00+21se3754100 0.0 10091610
18:00+17ese41083100 2.1 1006315
21:00+17ese41390100 6.1 1004458
18 may, tue
tue1800:00+16se31196100 2.3 1004322
03:00+15ese41396100 2.4 1002465
06:00+16se51296100 0.0 1000503
09:00+18se51485100 0.0 998810
12:00+21sse71570100 0.3 9981644
15:00+17sse81479100 0.6 9981256
18:00+13sw71577100 0.1 10021222
21:00+12sse259358 0.1 100597
19 may, wed
wed1900:00+11ssw269928 0.1 1006197
03:00+9wsw119938 0.1 100631
06:00+9wnw129648 0.0 100687
09:00+13nw2279100 0.0 1006502
12:00+13w4681100 0.3 1005678
15:00+9wnw41096100 3.9 1005435
18:00+9nw31096100 8.8 1005480
21:00+9wnw3996100 9.9 1004344